RH
65 40 37 33 24 28 25 14 10 8 10 8 6 6 6 8 13 60 34 43 64 72 81 85 93 94 94 94 93 92 92 92 92 92 93 92 92 93 93 93 92 90 87 81 82 83 83 86 85
63 32 31 26 31 35 25 11 9 8 8 8 6 7 7 22 22 32 40 43 58 67 79 87 94 94 95 94 94 93 91 91 92 92 93 93 93 93 93 92 92 90 87 83 80 79 84 88 87
43 28 30 34 33 32 26 10 7 6 9 9 10 9 9 19 30 33 43 48 50 67 69 84 94 95 95 94 94 94 93 93 93 93 92 92 93 93 93 92 92 91 88 84 79 83 87 89 89
32 28 25 35 35 25 20 15 9 12 10 9 10 14 18 26 31 40 45 50 66 64 71 93 95 95 95 95 94 94 94 94 94 94 93 92 93 93 93 92 93 92 89 86 87 88 89 90 90
34 30 39 45 31 22 16 15 15 14 14 14 12 17 30 23 25 46 49 57 74 83 86 88 94 94 95 95 94 94 94 94 94 94 94 94 93 94 93 93 93 92 90 90 92 89 90 91 91
29 28 38 41 27 19 15 14 13 15 15 16 16 22 28 23 19 39 56 61 78 84 88 87 92 94 94 95 95 96 95 95 95 95 95 94 94 94 93 93 94 93 92 92 91 90 90 91 92
30 29 32 26 20 15 15 14 14 14 17 18 16 19 28 21 20 21 40 67 72 88 88 89 93 91 94 96 97 98 97 96 95 95 96 96 96 95 93 94 94 94 94 94 91 91 91 92 92
25 26 27 26 22 18 17 15 11 12 14 12 12 18 22 19 16 14 14 19 78 84 95 93 93 95 96 97 97 98 97 97 97 96 96 97 96 95 94 94 94 93 92 93 92 91 92 92 93
17 26 25 20 16 17 14 16 11 8 7 10 10 12 10 9 10 10 13 15 23 66 95 95 92 89 93 94 92 96 96 97 98 97 97 99 98 97 95 95 95 94 93 93 92 92 93 94 94
19 27 20 13 14 12 10 10 10 9 8 9 10 9 8 8 10 12 15 21 22 21 39 94 92 91 86 72 89 96 94 98 98 98 97 99 98 98 90 94 95 94 94 94 93 93 94 96 98
13 15 12 8 11 8 9 11 10 10 10 9 11 10 8 11 13 14 15 16 17 16 20 71 92 89 88 72 87 92 97 99 98 98 98 98 92 96 92 96 94 98 96 97 95 96 98 97 95
10 8 8 8 9 10 14 11 11 12 10 10 9 10 11 11 12 13 14 14 15 16 17 22 52 92 94 92 82 83 82 89 93 94 97 98 95 96 92 92 97 98 98 98 97 98 97 94 86
12 11 9 9 10 12 10 10 10 10 12 10 9 10 12 11 12 18 32 34 38 40 39 38 29 54 82 88 88 88 78 82 80 84 89 92 91 91 87 94 94 96 98 97 96 95 90 88 86
12 13 12 12 12 11 10 12 12 10 11 10 12 12 13 20 40 39 39 42 42 41 44 45 44 44 48 67 75 87 93 84 78 79 81 88 84 93 88 94 92 93 94 92 92 90 93 87 88
15 19 17 13 11 12 11 14 13 12 11 11 12 18 32 34 36 40 41 44 45 44 45 51 53 54 51 58 76 79 91 92 84 77 79 83 83 84 86 88 92 88 91 91 95 92 94 93 87
20 21 24 16 12 11 11 17 12 11 11 15 32 31 32 34 35 38 40 44 46 49 50 52 51 57 58 58 71 75 79 90 88 83 80 80 82 77 91 83 89 87 89 87 88 96 96 89 94
28 27 23 18 11 12 13 16 12 12 14 34 36 37 37 39 41 39 40 45 49 54 56 57 57 62 62 61 62 70 77 83 85 88 84 82 80 80 86 84 85 88 87 92 86 94 93 95 95
25 26 19 18 12 14 17 18 15 14 34 40 42 42 46 47 46 42 44 46 48 53 56 59 61 64 64 65 64 67 80 83 86 89 86 88 82 82 81 89 86 85 87 90 92 91 95 94 93
19 18 16 15 11 18 20 21 16 39 42 48 48 50 54 53 47 45 47 48 50 54 58 61 67 67 67 70 73 74 81 83 86 86 72 85 81 83 86 92 93 84 85 89 91 96 96 96 94
22 22 23 18 16 19 22 23 41 42 48 49 52 59 59 57 55 52 52 55 54 55 58 61 67 69 69 71 73 78 81 84 84 82 82 89 80 81 78 83 93 92 89 94 95 94 98 97 96
22 25 26 28 24 24 25 26 49 46 48 49 53 57 59 63 65 62 58 61 62 59 58 67 72 70 73 74 72 78 83 82 83 81 84 74 74 84 79 78 88 88 88 92 92 90 90 96 97
24 25 28 29 34 43 28 44 48 55 61 60 62 68 70 70 69 66 64 68 69 60 62 75 74 72 68 72 78 86 88 81 81 79 77 75 72 83 80 78 85 82 84 81 92 84 80 84 94
24 29 32 34 41 46 37 43 61 58 72 71 72 65 69 73 78 77 71 72 64 61 72 72 75 75 73 76 83 90 94 89 82 84 84 86 82 75 86 80 84 88 82 80 77 79 80 82 86
25 32 36 38 46 75 40 40 80 92 79 72 67 64 71 72 76 77 68 70 72 74 77 80 84 83 78 78 84 91 94 94 94 88 92 94 92 82 84 87 84 90 87 87 83 80 86 88 87
30 48 85 81 86 72 31 54 89 75 75 72 76 76 77 74 80 81 79 84 82 84 90 89 88 88 84 87 87 90 93 95 97 97 99 97 96 94 96 96 96 94 92 87 85 92 90 91 90
35 45 76 75 70 66 40 88 97 80 73 65 70 72 75 82 80 83 83 88 90 89 95 96 92 91 90 92 89 90 91 94 96 94 96 98 98 98 97 97 96 94 95 95 91 92 94 92 94
41 45 37 62 60 75 79 83 78 67 76 87 79 76 90 92 88 87 88 91 94 96 97 97 96 93 95 96 90 90 92 93 96 92 94 95 95 95 96 98 96 96 96 96 98 98 99 98 96
33 38 69 71 76 81 88 91 97 85 87 84 95 95 90 92 94 92 93 95 97 98 97 93 94 99 97 96 93 92 93 93 92 90 94 95 94 92 94 95 94 93 94 96 95 96 96 97 98
51 48 53 55 74 93 93 94 82 96 90 96 96 93 96 96 97 96 95 94 98 94 97 93 96 96 99 98 96 98 93 94 91 90 89 91 92 93 93 92 90 91 92 93 93 92 92 93 94
38 52 56 89 78 83 95 97 82 95 85 84 84 83 89 96 97 97 97 92 93 95 95 97 98 94 99 100 98 99 91 88 90 88 90 85 86 87 87 87 90 90 89 90 91 91 90 92 92
Wind_Speed
9 10 2 3 5 5 6 11 4 8 5 2 4 9 4 3 5 6 4 7 9 12 9 10 11 12 12 12 13 13 14 15 14 12 12 11 11 11 10 10 10 10 10 9 7 6 6 8 7
6 7 0 2 4 1 6 1 6 4 4 5 7 6 4 4 7 7 8 9 9 12 11 7 9 12 12 11 12 13 13 15 14 12 12 12 11 10 10 10 10 9 9 8 8 7 7 7 7
5 5 3 3 3 6 5 4 6 6 8 7 6 6 5 3 9 6 5 7 8 12 11 10 9 10 11 11 12 13 14 14 14 13 12 12 12 11 10 10 10 9 9 8 7 8 7 7 8
4 5 5 2 7 13 7 11 3 3 6 8 6 5 9 10 5 4 6 10 14 12 10 12 11 9 10 10 11 12 13 13 14 14 13 12 13 12 11 10 9 8 9 8 10 7 8 8 7
1 1 1 2 9 12 12 4 3 6 4 9 6 2 9 8 10 9 10 10 12 8 7 7 13 10 9 8 8 10 11 11 12 13 14 13 13 12 12 11 9 9 9 9 10 8 8 8 7
4 3 3 4 9 8 8 7 4 9 13 9 9 10 6 3 12 8 8 8 8 10 7 7 7 8 10 9 9 9 10 12 12 13 13 14 13 12 12 11 10 10 9 9 9 9 8 8 7
4 2 5 7 9 9 8 9 14 7 13 9 3 5 2 10 9 8 8 7 7 8 8 6 5 7 6 9 8 8 10 11 12 13 13 13 12 12 12 12 11 11 11 10 9 8 8 8 7
2 3 5 6 6 6 10 7 16 14 8 5 5 5 7 6 10 11 11 8 3 7 6 8 9 7 5 5 8 8 8 9 10 11 12 12 11 11 12 11 10 11 11 10 10 9 8 8 8
1 4 3 5 3 6 9 10 9 8 12 7 6 9 3 7 10 11 8 9 7 5 4 6 7 8 9 6 5 7 8 8 9 9 10 10 6 7 9 9 11 10 10 11 10 10 10 8 8
5 3 6 4 3 4 7 9 8 8 10 8 12 19 12 12 8 9 9 8 9 12 7 5 5 7 9 7 6 6 5 4 5 6 9 5 6 7 9 9 12 11 10 10 11 10 9 7 4
5 7 7 6 0 4 4 4 5 7 3 5 7 8 13 9 11 10 9 6 4 6 5 5 8 5 7 9 7 4 3 4 5 7 7 7 7 7 6 5 5 5 8 4 5 6 4 5 4
4 8 5 8 7 3 3 6 6 4 7 7 6 4 7 9 9 8 8 9 11 10 9 3 5 7 7 5 5 8 8 7 6 7 9 7 5 6 7 5 7 7 5 6 5 4 5 6 6
4 3 6 6 6 3 3 5 6 7 6 6 6 7 6 5 7 16 23 23 20 22 23 25 16 8 8 9 9 8 9 9 11 10 10 8 7 7 7 6 7 7 7 6 6 6 7 8 7
6 8 6 6 9 6 6 3 4 7 5 5 4 5 4 16 19 20 21 18 20 20 22 23 22 21 16 16 12 8 9 10 10 10 11 13 9 6 8 7 8 8 8 6 7 7 6 6 5
8 6 9 11 8 7 7 3 5 3 6 5 4 13 16 19 19 17 16 17 18 17 19 21 22 20 22 16 12 14 8 10 10 11 14 15 13 10 10 8 8 9 8 9 6 5 6 4 4
4 4 3 8 13 6 11 5 9 4 4 5 18 15 15 17 17 17 17 18 21 20 21 21 19 20 19 20 15 11 12 9 9 10 11 18 15 14 9 10 8 9 8 9 8 5 4 7 5
3 5 7 6 7 5 6 5 5 4 8 15 15 15 16 17 21 19 19 17 18 19 21 22 21 20 20 18 15 14 14 13 10 9 10 16 16 13 11 10 9 10 8 7 9 4 5 4 3
4 2 5 2 5 1 1 2 5 5 19 15 14 15 16 17 19 21 23 19 18 19 19 19 18 20 19 13 13 12 11 11 12 10 7 10 13 15 11 8 10 10 8 8 7 7 4 4 5
5 6 6 7 8 3 2 2 5 14 16 15 14 14 15 15 14 17 18 19 19 18 21 19 21 21 16 13 12 12 12 13 12 12 17 9 13 15 14 7 8 12 11 10 11 5 7 3 4
4 7 8 8 7 6 6 5 12 15 13 15 14 14 14 15 17 17 18 17 19 19 20 20 20 19 16 11 11 9 10 12 12 11 15 16 24 16 16 13 9 11 10 9 9 9 4 3 5
5 6 7 4 7 6 4 7 9 12 15 15 14 12 12 14 15 16 18 18 19 20 22 20 19 19 17 17 11 10 10 11 11 10 10 14 20 19 18 17 11 10 9 9 10 11 11 8 4
7 1 5 5 5 4 5 3 5 11 12 13 11 11 11 12 14 15 17 19 19 19 20 19 19 19 16 17 12 14 11 14 12 13 12 14 19 17 20 18 16 15 11 12 9 9 10 7 9
8 5 3 4 6 6 9 3 6 3 8 11 11 11 11 12 14 16 17 17 19 19 19 19 19 19 19 17 13 11 14 10 12 13 17 15 16 20 18 19 18 15 12 12 13 10 11 10 8
5 4 7 7 3 4 15 8 1 3 5 9 12 13 13 15 14 14 16 17 17 17 19 19 18 18 18 19 15 14 16 14 13 15 13 4 7 12 19 20 18 12 12 12 12 12 14 12 10
5 1 4 3 1 7 4 6 4 8 10 8 9 11 11 12 13 14 17 17 18 19 18 18 18 19 18 19 15 14 15 16 10 7 2 7 5 4 7 8 10 2 10 11 12 11 14 14 12
10 9 5 4 3 6 5 2 5 10 7 7 7 9 10 11 12 13 16 16 17 19 18 18 18 19 19 19 18 14 14 9 8 4 8 5 1 7 13 15 10 16 16 4 13 11 10 12 12
3 10 7 3 3 2 4 5 9 10 7 6 9 11 9 9 11 13 14 15 16 18 16 16 17 21 21 19 16 16 14 11 9 6 14 10 11 7 7 22 17 13 13 18 15 7 6 8 9
5 1 3 3 2 4 0 6 3 3 7 8 8 7 8 8 9 12 13 15 14 15 15 17 18 22 21 18 16 15 14 10 8 9 21 19 14 16 20 16 16 16 18 16 15 15 13 9 5
3 5 4 4 3 4 1 3 2 4 4 5 5 5 5 7 8 9 11 13 13 15 16 17 19 23 23 18 17 15 13 11 8 17 20 20 18 20 19 17 18 17 15 15 12 16 15 14 12
10 6 3 5 4 2 4 4 6 5 6 6 5 6 6 5 6 6 9 12 14 15 16 17 20 20 20 18 16 15 11 10 18 22 21 20 15 18 17 19 22 16 15 14 16 17 17 16 17
Wind_Direction
326 310 251 334 49 74 262 275 49 355 42 24 68 84 128 42 11 115 260 42 127 141 147 155 140 131 133 139 138 138 138 135 134 134 131 125 120 117 112 109 110 109 110 111 120 107 94 102 91
321 314 74 286 97 357 281 246 97 96 120 63 53 54 67 105 62 86 31 347 155 143 143 138 141 132 132 137 138 140 143 139 139 141 138 135 131 130 130 129 125 119 116 117 124 110 100 107 98
292 202 60 144 187 204 220 12 130 138 90 78 42 43 42 109 46 102 22 7 45 146 143 137 135 124 129 139 146 147 146 147 144 146 146 146 144 141 141 141 137 134 129 126 126 114 108 112 113
319 353 348 71 273 275 242 269 185 64 72 75 89 35 60 43 59 72 37 31 47 132 128 138 131 131 137 147 155 153 150 153 151 153 154 155 152 150 150 150 147 141 138 138 125 118 118 119 119
213 337 311 262 269 269 287 311 58 65 80 29 55 77 76 34 55 58 39 33 83 71 94 134 136 137 138 143 158 156 158 156 160 159 159 160 159 156 156 157 155 147 147 141 128 133 131 130 133
334 115 24 258 269 287 295 263 82 53 59 33 36 63 65 51 46 39 55 41 101 111 113 123 118 137 150 159 167 168 164 164 167 168 165 163 162 159 161 160 160 156 152 138 138 145 145 143 146
163 94 244 278 287 308 357 352 33 57 65 46 37 86 115 51 31 45 71 33 85 122 127 132 138 150 168 164 169 174 172 175 176 174 169 165 163 162 164 163 166 162 154 150 150 155 157 158 156
173 121 285 270 290 318 7 10 19 25 40 15 59 28 36 360 26 25 15 17 326 130 152 160 163 159 176 181 174 182 180 181 185 178 172 165 165 166 167 168 173 168 160 159 159 164 170 171 169
29 43 273 266 31 325 359 11 6 338 20 4 31 58 312 16 32 22 5 348 5 350 199 169 169 173 165 189 192 187 187 186 184 181 171 157 166 169 172 173 174 176 166 163 169 171 172 172 185
101 142 245 271 32 5 20 15 1 21 359 349 358 348 10 2 25 20 6 6 3 353 346 272 181 188 173 173 177 188 190 178 187 185 178 177 171 176 177 176 178 176 173 170 169 172 181 165 186
210 219 269 299 49 49 356 17 3 6 354 307 326 336 346 26 19 21 4 356 335 313 3 328 290 208 209 188 167 179 180 182 193 194 182 186 183 183 185 176 176 167 172 172 172 169 180 189 202
223 243 255 295 317 24 15 332 328 262 254 275 292 357 36 21 3 351 349 338 335 335 323 33 346 277 219 239 183 180 184 188 188 199 189 191 195 188 188 177 170 168 171 178 178 179 193 203 211
306 312 294 296 338 299 282 262 258 285 330 5 48 53 21 357 325 18 22 21 10 10 360 354 346 337 302 249 241 189 201 191 194 191 192 190 201 198 184 172 171 174 169 185 187 190 195 207 204
291 296 285 303 296 294 269 278 28 273 80 38 18 359 330 46 42 31 23 13 7 1 355 347 352 355 351 343 288 228 196 205 194 191 190 191 197 195 190 171 176 177 172 186 191 192 198 210 192
305 323 309 260 234 229 126 349 254 266 154 197 226 47 52 50 40 35 19 10 3 355 349 349 343 345 343 337 340 325 230 192 201 197 189 189 192 197 189 181 177 184 175 177 180 195 194 198 199
271 269 305 285 193 192 107 242 272 270 128 34 64 48 42 37 32 26 20 8 360 353 350 343 341 341 344 341 335 331 331 278 199 213 197 191 192 194 186 188 191 179 176 179 187 177 199 189 183
247 242 212 312 179 118 125 210 236 15 40 68 58 46 33 17 15 12 9 6 0 351 345 340 338 336 335 337 325 327 320 314 257 206 192 192 192 193 187 188 188 179 184 177 191 181 163 187 192
297 226 322 244 271 118 247 339 3 355 79 65 52 42 34 21 8 357 356 357 354 348 343 334 333 331 332 330 326 318 326 326 320 252 207 193 190 190 196 183 182 186 184 186 178 177 179 170 177
307 294 279 291 288 293 227 241 284 86 69 58 45 38 29 15 354 356 352 345 345 344 338 335 330 330 329 328 325 325 317 312 310 322 257 243 213 190 198 189 176 185 189 183 176 156 174 175 161
291 289 291 291 288 40 0 319 88 77 74 64 51 41 22 3 358 355 347 348 342 336 331 330 326 322 318 313 308 297 296 298 300 293 292 216 231 198 199 195 187 180 179 165 170 174 140 164 169
246 233 260 266 335 337 272 269 120 89 74 61 53 49 29 10 353 348 346 346 340 337 331 328 319 316 311 306 307 300 297 290 295 289 292 258 225 199 191 198 193 182 179 177 183 183 175 187 195
240 7 23 348 0 243 77 285 163 115 69 53 37 38 25 4 357 350 348 346 340 335 328 321 321 315 312 306 310 302 292 285 287 287 282 279 252 202 192 191 190 193 189 192 177 185 187 166 203
241 60 342 310 282 302 254 242 117 38 23 23 23 14 9 7 359 351 347 343 339 335 333 329 327 323 320 313 308 307 285 277 280 277 280 268 267 226 202 192 185 182 188 196 195 190 191 192 189
58 3 292 248 214 274 246 195 141 30 16 2 6 2 11 2 355 347 347 349 335 338 340 337 332 327 328 321 315 310 300 295 273 267 260 284 280 253 221 189 184 165 181 188 190 192 198 195 198
117 83 308 334 125 224 297 29 87 93 59 34 2 7 6 1 355 351 352 345 343 343 337 340 340 338 336 317 320 321 313 304 280 283 243 80 333 10 43 337 101 154 178 188 191 190 197 194 195
187 182 185 268 210 291 4 40 127 107 90 48 22 7 9 3 357 353 352 344 344 339 338 342 347 345 340 328 332 337 338 330 306 57 74 42 184 39 40 25 32 58 26 241 203 202 189 190 192
235 210 233 299 302 343 127 103 154 126 81 48 21 16 9 360 1 356 348 345 341 343 339 344 357 354 347 340 352 350 341 349 327 47 80 48 53 45 50 59 25 26 49 22 301 200 184 200 197
164 48 38 319 253 248 340 170 190 39 26 23 25 11 0 7 355 0 349 340 345 342 345 352 6 4 351 348 357 357 339 2 347 46 62 56 31 55 51 57 37 41 37 27 337 44 27 21 354
226 229 227 184 168 210 258 240 101 99 71 55 30 4 2 5 7 351 344 344 348 350 359 359 11 15 351 355 356 4 360 7 24 57 57 53 38 45 47 54 53 34 32 38 26 35 31 29 17
241 185 204 147 267 296 173 229 126 135 106 94 40 9 18 21 14 342 341 346 357 357 0 7 13 15 351 357 0 357 7 19 51 53 59 60 52 56 56 46 54 34 45 31 39 45 37 25 27